| time (UTC) | temp C | wind direction | speed KPH | gust KPH | rain 1hr cm | rain 24hr cm | rain mn cm | humidity % | barometer mb |
| 20260504202603 | 22 | 0.0 | 0.0 | 0.00 | 0.00 | 0.00 | 44 | 1008.5 | |
| 20260504202502 | 22 | 0.0 | 0.0 | 0.00 | 0.00 | 0.00 | 43 | 1008.6 | |
| 20260504202403 | 22 | 0.0 | 0.0 | 0.00 | 0.00 | 0.00 | 42 | 1008.5 | |
| 20260504202301 | 22 | 0.0 | 0.0 | 0.00 | 0.00 | 0.00 | 42 | 1008.6 | |
| 20260504202202 | 22 | 0.0 | 0.0 | 0.00 | 0.00 | 0.00 | 43 | 1008.6 | |
| 20260504202102 | 22 | 0.0 | 0.0 | 0.00 | 0.00 | 0.00 | 43 | 1008.6 | |
| 20260504201902 | 22 | 0.0 | 0.0 | 0.00 | 0.00 | 0.00 | 44 | 1008.6 | |
| 20260504201802 | 22 | 0.0 | 0.0 | 0.00 | 0.00 | 0.00 | 44 | 1008.6 | |
| 20260504201601 | 22 | 0.0 | 0.0 | 0.00 | 0.00 | 0.00 | 43 | 1008.6 | |
| 20260504201502 | 22 | 0.0 | 0.0 | 0.00 | 0.00 | 0.00 | 43 | 1008.8 | |
| 20260504201301 | 23 | 0.0 | 0.0 | 0.00 | 0.00 | 0.00 | 44 | 1008.6 | |
| 20260504201202 | 23 | 0.0 | 0.0 | 0.00 | 0.00 | 0.00 | 42 | 1008.6 | |
| 20260504201101 | 23 | 0.0 | 0.0 | 0.00 | 0.00 | 0.00 | 43 | 1008.8 | |
| 20260504201001 | 23 | 0.0 | 0.0 | 0.00 | 0.00 | 0.00 | 44 | 1008.8 | |
| 20260504200902 | 22 | 0.0 | 0.0 | 0.00 | 0.00 | 0.00 | 46 | 1008.8 | |
| 20260504200804 | 22 | 0.0 | 0.0 | 0.00 | 0.00 | 0.00 | 46 | 1008.8 | |
| 20260504200502 | 22 | 0.0 | 0.0 | 0.00 | 0.00 | 0.00 | 45 | 1008.9 | |
| 20260504200401 | 22 | 0.0 | 0.0 | 0.00 | 0.00 | 0.00 | 43 | 1008.9 | |
| 20260504200301 | 22 | 0.0 | 0.0 | 0.00 | 0.00 | 0.00 | 44 | 1008.9 | |
| 20260504200001 | 22 | 0.0 | 0.0 | 0.00 | 0.00 | 0.00 | 43 | 1009.0 | |
| 20260504195901 | 22 | 0.0 | 0.0 | 0.00 | 0.00 | 0.00 | 43 | 1009.0 | |
| 20260504195801 | 22 | 0.0 | 0.0 | 0.00 | 0.00 | 0.00 | 43 | 1009.0 | |
| 20260504195701 | 22 | 0.0 | 0.0 | 0.00 | 0.00 | 0.00 | 43 | 1009.0 | |
| 20260504195602 | 22 | 0.0 | 0.0 | 0.00 | 0.00 | 0.00 | 44 | 1009.0 | |
| 20260504195502 | 22 | 0.0 | 0.0 | 0.00 | 0.00 | 0.00 | 45 | 1009.0 | |
| 20260504195401 | 22 | 0.0 | 0.0 | 0.00 | 0.00 | 0.00 | 44 | 1009.0 | |
| 20260504195203 | 22 | 0.0 | 0.0 | 0.00 | 0.00 | 0.00 | 43 | 1009.1 | |
| 20260504195102 | 22 | 0.0 | 0.0 | 0.00 | 0.00 | 0.00 | 42 | 1009.1 | |
| 20260504195001 | 22 | 0.0 | 0.0 | 0.00 | 0.00 | 0.00 | 41 | 1009.1 | |
| 20260504194901 | 22 | 0.0 | 0.0 | 0.00 | 0.00 | 0.00 | 41 | 1009.1 | |
| 20260504194802 | 22 | 0.0 | 0.0 | 0.00 | 0.00 | 0.00 | 42 | 1009.1 | |
| 20260504194701 | 22 | 0.0 | 0.0 | 0.00 | 0.00 | 0.00 | 42 | 1009.1 | |
| 20260504194601 | 22 | 0.0 | 0.0 | 0.00 | 0.00 | 0.00 | 44 | 1009.1 | |
| 20260504194501 | 22 | 0.0 | 0.0 | 0.00 | 0.00 | 0.00 | 44 | 1009.1 | |
| 20260504194401 | 22 | 0.0 | 0.0 | 0.00 | 0.00 | 0.00 | 42 | 1009.1 | |
| 20260504194302 | 22 | 0.0 | 0.0 | 0.00 | 0.00 | 0.00 | 43 | 1009.1 | |
| 20260504194104 | 22 | 0.0 | 0.0 | 0.00 | 0.00 | 0.00 | 42 | 1009.2 | |
| 20260504194004 | 22 | 0.0 | 0.0 | 0.00 | 0.00 | 0.00 | 41 | 1009.2 | |
| 20260504193901 | 22 | 0.0 | 0.0 | 0.00 | 0.00 | 0.00 | 43 | 1009.3 | |
| 20260504193802 | 22 | 0.0 | 0.0 | 0.00 | 0.00 | 0.00 | 41 | 1009.3 | |
| 20260504193701 | 22 | 0.0 | 0.0 | 0.00 | 0.00 | 0.00 | 44 | 1009.2 | |
| 20260504193600 | 22 | 0.0 | 0.0 | 0.00 | 0.00 | 0.00 | 46 | 1009.2 | |
| 20260504193501 | 22 | 0.0 | 0.0 | 0.00 | 0.00 | 0.00 | 46 | 1009.2 | |
| 20260504193401 | 22 | 0.0 | 0.0 | 0.00 | 0.00 | 0.00 | 45 | 1009.2 | |
| 20260504193301 | 22 | 0.0 | 0.0 | 0.00 | 0.00 | 0.00 | 43 | 1009.3 | |
| 20260504193201 | 22 | 0.0 | 0.0 | 0.00 | 0.00 | 0.00 | 45 | 1009.3 | |
| 20260504193101 | 22 | 0.0 | 0.0 | 0.00 | 0.00 | 0.00 | 46 | 1009.3 | |
| 20260504193000 | 22 | 0.0 | 0.0 | 0.00 | 0.00 | 0.00 | 43 | 1009.3 | |
| 20260504192901 | 22 | 0.0 | 0.0 | 0.00 | 0.00 | 0.00 | 44 | 1009.3 | |
| 20260504192802 | 22 | 0.0 | 0.0 | 0.00 | 0.00 | 0.00 | 46 | 1009.3 | |
| 20260504192702 | 22 | 0.0 | 0.0 | 0.00 | 0.00 | 0.00 | 44 | 1009.4 | |
| 20260504192501 | 22 | 0.0 | 0.0 | 0.00 | 0.00 | 0.00 | 43 | 1009.5 | |
| 20260504192301 | 22 | 0.0 | 0.0 | 0.00 | 0.00 | 0.00 | 43 | 1009.5 | |
| 20260504192202 | 22 | 0.0 | 0.0 | 0.00 | 0.00 | 0.00 | 42 | 1009.5 | |
| 20260504192100 | 22 | 0.0 | 0.0 | 0.00 | 0.00 | 0.00 | 41 | 1009.5 | |
| 20260504191902 | 22 | 0.0 | 0.0 | 0.00 | 0.00 | 0.00 | 41 | 1009.5 | |
| 20260504191802 | 22 | 0.0 | 0.0 | 0.00 | 0.00 | 0.00 | 41 | 1009.6 | |
| 20260504191701 | 22 | 0.0 | 0.0 | 0.00 | 0.00 | 0.00 | 42 | 1009.5 | |
| 20260504191601 | 22 | 0.0 | 0.0 | 0.00 | 0.00 | 0.00 | 41 | 1009.5 | |
| 20260504191502 | 22 | 0.0 | 0.0 | 0.00 | 0.00 | 0.00 | 41 | 1009.5 | |
| 20260504191401 | 22 | 0.0 | 0.0 | 0.00 | 0.00 | 0.00 | 42 | 1009.6 | |
| 20260504191102 | 22 | 0.0 | 0.0 | 0.00 | 0.00 | 0.00 | 43 | 1009.6 | |
| 20260504191002 | 22 | 0.0 | 0.0 | 0.00 | 0.00 | 0.00 | 42 | 1009.6 | |
| 20260504190902 | 22 | 0.0 | 0.0 | 0.00 | 0.00 | 0.00 | 42 | 1009.6 | |
| 20260504190701 | 22 | 0.0 | 0.0 | 0.00 | 0.00 | 0.00 | 43 | 1009.6 | |
| 20260504190601 | 22 | 0.0 | 0.0 | 0.00 | 0.00 | 0.00 | 42 | 1009.7 | |
| 20260504190501 | 22 | 0.0 | 0.0 | 0.00 | 0.00 | 0.00 | 41 | 1009.6 | |
| 20260504190302 | 22 | 0.0 | 0.0 | 0.00 | 0.00 | 0.00 | 42 | 1009.7 | |
| 20260504190201 | 22 | 0.0 | 0.0 | 0.00 | 0.00 | 0.00 | 42 | 1009.8 | |
| 20260504190101 | 22 | 0.0 | 0.0 | 0.00 | 0.00 | 0.00 | 46 | 1009.7 | |
| 20260504185901 | 22 | 0.0 | 0.0 | 0.00 | 0.00 | 0.00 | 44 | 1009.8 | |
| 20260504185801 | 22 | 0.0 | 0.0 | 0.00 | 0.00 | 0.00 | 45 | 1009.8 | |
| 20260504185703 | 22 | 0.0 | 0.0 | 0.00 | 0.00 | 0.00 | 43 | 1009.8 | |
| 20260504185602 | 22 | 0.0 | 0.0 | 0.00 | 0.00 | 0.00 | 42 | 1009.8 | |
| 20260504185501 | 22 | 0.0 | 0.0 | 0.00 | 0.00 | 0.00 | 44 | 1009.8 | |
| 20260504185401 | 22 | 0.0 | 0.0 | 0.00 | 0.00 | 0.00 | 43 | 1009.9 | |
| 20260504185300 | 22 | 0.0 | 0.0 | 0.00 | 0.00 | 0.00 | 44 | 1009.9 | |
| 20260504185204 | 22 | 0.0 | 0.0 | 0.00 | 0.00 | 0.00 | 42 | 1009.9 | |
| 20260504185101 | 22 | 0.0 | 0.0 | 0.00 | 0.00 | 0.00 | 42 | 1010.0 | |
| 20260504185000 | 22 | 0.0 | 0.0 | 0.00 | 0.00 | 0.00 | 43 | 1009.9 | |
| 20260504184801 | 22 | 0.0 | 0.0 | 0.00 | 0.00 | 0.00 | 45 | 1010.0 | |
| 20260504184701 | 22 | 0.0 | 0.0 | 0.00 | 0.00 | 0.00 | 44 | 1010.1 | |
| 20260504184602 | 22 | 0.0 | 0.0 | 0.00 | 0.00 | 0.00 | 42 | 1010.0 | |
| 20260504184500 | 22 | 0.0 | 0.0 | 0.00 | 0.00 | 0.00 | 42 | 1010.1 | |
| 20260504184402 | 22 | 0.0 | 0.0 | 0.00 | 0.00 | 0.00 | 44 | 1010.1 | |
| 20260504184301 | 22 | 0.0 | 0.0 | 0.00 | 0.00 | 0.00 | 44 | 1010.1 | |
| 20260504184201 | 22 | 0.0 | 0.0 | 0.00 | 0.00 | 0.00 | 43 | 1010.1 | |
| 20260504184101 | 22 | 0.0 | 0.0 | 0.00 | 0.00 | 0.00 | 43 | 1010.0 | |
| 20260504184001 | 22 | 0.0 | 0.0 | 0.00 | 0.00 | 0.00 | 43 | 1010.0 | |
| 20260504183901 | 22 | 0.0 | 0.0 | 0.00 | 0.00 | 0.00 | 42 | 1010.1 | |
| 20260504183801 | 22 | 0.0 | 0.0 | 0.00 | 0.00 | 0.00 | 44 | 1010.1 | |
| 20260504183703 | 22 | 0.0 | 0.0 | 0.00 | 0.00 | 0.00 | 42 | 1010.1 | |
| 20260504183601 | 22 | 0.0 | 0.0 | 0.00 | 0.00 | 0.00 | 43 | 1010.1 | |
| 20260504183502 | 22 | 0.0 | 0.0 | 0.00 | 0.00 | 0.00 | 44 | 1010.2 | |
| 20260504183409 | 22 | 0.0 | 0.0 | 0.00 | 0.00 | 0.00 | 41 | 1010.2 | |
| 20260504183301 | 22 | 0.0 | 0.0 | 0.00 | 0.00 | 0.00 | 42 | 1010.2 | |
| 20260504183202 | 22 | 0.0 | 0.0 | 0.00 | 0.00 | 0.00 | 42 | 1010.3 | |
| 20260504183002 | 22 | 0.0 | 0.0 | 0.00 | 0.00 | 0.00 | 44 | 1010.2 | |
| 20260504182900 | 22 | 0.0 | 0.0 | 0.00 | 0.00 | 0.00 | 43 | 1010.2 | |
| 20260504182802 | 22 | 0.0 | 0.0 | 0.00 | 0.00 | 0.00 | 43 | 1010.2 | |
| 20260504182701 | 22 | 0.0 | 0.0 | 0.00 | 0.00 | 0.00 | 43 | 1010.2 | |
| 20260504182602 | 22 | 0.0 | 0.0 | 0.00 | 0.00 | 0.00 | 43 | 1010.3 | |
| 20260504182501 | 22 | 0.0 | 0.0 | 0.00 | 0.00 | 0.00 | 45 | 1010.3 | |
| 20260504182402 | 22 | 0.0 | 0.0 | 0.00 | 0.00 | 0.00 | 44 | 1010.3 | |
| 20260504182201 | 22 | 0.0 | 0.0 | 0.00 | 0.00 | 0.00 | 43 | 1010.3 | |
| 20260504182101 | 22 | 0.0 | 0.0 | 0.00 | 0.00 | 0.00 | 43 | 1010.4 | |
| 20260504182001 | 22 | 0.0 | 0.0 | 0.00 | 0.00 | 0.00 | 43 | 1010.4 | |
| 20260504181901 | 22 | 0.0 | 0.0 | 0.00 | 0.00 | 0.00 | 42 | 1010.4 | |
| 20260504181801 | 22 | 0.0 | 0.0 | 0.00 | 0.00 | 0.00 | 44 | 1010.4 | |
| 20260504181703 | 22 | 0.0 | 0.0 | 0.00 | 0.00 | 0.00 | 42 | 1010.3 | |
| 20260504181601 | 22 | 0.0 | 0.0 | 0.00 | 0.00 | 0.00 | 46 | 1010.3 | |
| 20260504181501 | 22 | 0.0 | 0.0 | 0.00 | 0.00 | 0.00 | 45 | 1010.3 | |
| 20260504181300 | 22 | 0.0 | 0.0 | 0.00 | 0.00 | 0.00 | 44 | 1010.4 | |
| 20260504181201 | 22 | 0.0 | 0.0 | 0.00 | 0.00 | 0.00 | 42 | 1010.4 | |
| 20260504181106 | 22 | 0.0 | 0.0 | 0.00 | 0.00 | 0.00 | 45 | 1010.5 | |
| 20260504181005 | 22 | 0.0 | 0.0 | 0.00 | 0.00 | 0.00 | 44 | 1010.5 | |
| 20260504180902 | 21 | 0.0 | 0.0 | 0.00 | 0.00 | 0.00 | 42 | 1010.5 | |
| 20260504180803 | 21 | 0.0 | 0.0 | 0.00 | 0.00 | 0.00 | 44 | 1010.5 | |
| 20260504180502 | 21 | 0.0 | 0.0 | 0.00 | 0.00 | 0.00 | 46 | 1010.6 | |
| 20260504180402 | 21 | 0.0 | 0.0 | 0.00 | 0.00 | 0.00 | 47 | 1010.4 | |
| 20260504180301 | 21 | 0.0 | 0.0 | 0.00 | 0.00 | 0.00 | 44 | 1010.4 | |
| 20260504180204 | 21 | 0.0 | 0.0 | 0.00 | 0.00 | 0.00 | 42 | 1010.6 | |
| 20260504180101 | 21 | 0.0 | 0.0 | 0.00 | 0.00 | 0.00 | 43 | 1010.6 | |
| 20260504180004 | 21 | 0.0 | 0.0 | 0.00 | 0.00 | 0.00 | 42 | 1010.6 | |
| 20260504175902 | 21 | 0.0 | 0.0 | 0.00 | 0.00 | 0.00 | 42 | 1010.6 | |
| 20260504175802 | 22 | 0.0 | 0.0 | 0.00 | 0.00 | 0.00 | 42 | 1010.7 | |
| 20260504175702 | 22 | 0.0 | 0.0 | 0.00 | 0.00 | 0.00 | 42 | 1010.7 | |
| 20260504175602 | 22 | 0.0 | 0.0 | 0.00 | 0.00 | 0.00 | 42 | 1010.8 | |
| 20260504175502 | 22 | 0.0 | 0.0 | 0.00 | 0.00 | 0.00 | 43 | 1010.8 | |
| 20260504175401 | 22 | 0.0 | 0.0 | 0.00 | 0.00 | 0.00 | 45 | 1010.7 | |
| 20260504175300 | 21 | 0.0 | 0.0 | 0.00 | 0.00 | 0.00 | 45 | 1010.7 | |
| 20260504175201 | 21 | 0.0 | 0.0 | 0.00 | 0.00 | 0.00 | 42 | 1010.7 | |
| 20260504175101 | 21 | 0.0 | 0.0 | 0.00 | 0.00 | 0.00 | 46 | 1010.7 | |
| 20260504175001 | 21 | 0.0 | 0.0 | 0.00 | 0.00 | 0.00 | 47 | 1010.7 | |
| 20260504174901 | 21 | 0.0 | 0.0 | 0.00 | 0.00 | 0.00 | 49 | 1010.8 | |
| 20260504174701 | 21 | 0.0 | 0.0 | 0.00 | 0.00 | 0.00 | 44 | 1010.8 | |
| 20260504174601 | 21 | 0.0 | 0.0 | 0.00 | 0.00 | 0.00 | 45 | 1010.8 | |
| 20260504174401 | 21 | 0.0 | 0.0 | 0.00 | 0.00 | 0.00 | 43 | 1010.8 | |
| 20260504174301 | 21 | 0.0 | 0.0 | 0.00 | 0.00 | 0.00 | 45 | 1010.8 | |
| 20260504174201 | 21 | 0.0 | 0.0 | 0.00 | 0.00 | 0.00 | 44 | 1010.8 | |
| 20260504174001 | 21 | 0.0 | 0.0 | 0.00 | 0.00 | 0.00 | 44 | 1010.8 | |
| 20260504173902 | 21 | 0.0 | 0.0 | 0.00 | 0.00 | 0.00 | 44 | 1010.8 | |
| 20260504173701 | 21 | 0.0 | 0.0 | 0.00 | 0.00 | 0.00 | 47 | 1010.7 | |
| 20260504173603 | 21 | 0.0 | 0.0 | 0.00 | 0.00 | 0.00 | 44 | 1010.9 | |
| 20260504173501 | 21 | 0.0 | 0.0 | 0.00 | 0.00 | 0.00 | 44 | 1010.9 | |
| 20260504173301 | 21 | 0.0 | 0.0 | 0.00 | 0.00 | 0.00 | 43 | 1010.9 | |
| 20260504173201 | 21 | 0.0 | 0.0 | 0.00 | 0.00 | 0.00 | 43 | 1011.0 | |
| 20260504173102 | 21 | 0.0 | 0.0 | 0.00 | 0.00 | 0.00 | 43 | 1011.0 | |
| 20260504173001 | 21 | 0.0 | 0.0 | 0.00 | 0.00 | 0.00 | 44 | 1011.0 | |
| 20260504172901 | 21 | 0.0 | 0.0 | 0.00 | 0.00 | 0.00 | 44 | 1010.9 | |
| 20260504172802 | 21 | 0.0 | 0.0 | 0.00 | 0.00 | 0.00 | 45 | 1010.9 | |
| 20260504172602 | 21 | 0.0 | 0.0 | 0.00 | 0.00 | 0.00 | 44 | 1010.9 | |
| 20260504172401 | 21 | 0.0 | 0.0 | 0.00 | 0.00 | 0.00 | 44 | 1010.9 | |
| 20260504172201 | 21 | 0.0 | 0.0 | 0.00 | 0.00 | 0.00 | 47 | 1011.1 | |
| 20260504172101 | 21 | 0.0 | 0.0 | 0.00 | 0.00 | 0.00 | 48 | 1011.0 | |
| 20260504172001 | 21 | 0.0 | 0.0 | 0.00 | 0.00 | 0.00 | 48 | 1011.0 | |
| 20260504171901 | 21 | 0.0 | 0.0 | 0.00 | 0.00 | 0.00 | 44 | 1011.0 | |
| 20260504171802 | 21 | 0.0 | 0.0 | 0.00 | 0.00 | 0.00 | 43 | 1011.1 | |
| 20260504171701 | 21 | 0.0 | 0.0 | 0.00 | 0.00 | 0.00 | 47 | 1011.1 | |
| 20260504171602 | 21 | 0.0 | 0.0 | 0.00 | 0.00 | 0.00 | 50 | 1011.1 | |
| 20260504171502 | 21 | 0.0 | 0.0 | 0.00 | 0.00 | 0.00 | 47 | 1011.1 | |
| 20260504171201 | 21 | 0.0 | 0.0 | 0.00 | 0.00 | 0.00 | 45 | 1011.2 | |
| 20260504171102 | 21 | 0.0 | 0.0 | 0.00 | 0.00 | 0.00 | 45 | 1011.2 | |
| 20260504171003 | 21 | 0.0 | 0.0 | 0.00 | 0.00 | 0.00 | 49 | 1011.3 | |
| 20260504170902 | 21 | 0.0 | 0.0 | 0.00 | 0.00 | 0.00 | 45 | 1011.2 | |
| 20260504170800 | 21 | 0.0 | 0.0 | 0.00 | 0.00 | 0.00 | 46 | 1011.3 | |
| 20260504170702 | 21 | 0.0 | 0.0 | 0.00 | 0.00 | 0.00 | 47 | 1011.3 | |
| 20260504170601 | 20 | 0.0 | 0.0 | 0.00 | 0.00 | 0.00 | 48 | 1011.3 | |
| 20260504170502 | 20 | 0.0 | 0.0 | 0.00 | 0.00 | 0.00 | 46 | 1011.3 | |
| 20260504170403 | 20 | 0.0 | 0.0 | 0.00 | 0.00 | 0.00 | 44 | 1011.3 | |
| 20260504170301 | 20 | 0.0 | 0.0 | 0.00 | 0.00 | 0.00 | 45 | 1011.4 | |
| 20260504170203 | 20 | 0.0 | 0.0 | 0.00 | 0.00 | 0.00 | 45 | 1011.4 | |
| 20260504160301 | 19 | 0.0 | 0.0 | 0.00 | 0.00 | 0.00 | 46 | 1012.3 | |
| 20260504160201 | 18 | 0.0 | 0.0 | 0.00 | 0.00 | 0.00 | 45 | 1012.3 | |
| 20260504151101 | 17 | 0.0 | 0.0 | 0.00 | 0.00 | 0.00 | 49 | 1012.7 | |
| 20260504151001 | 17 | 0.0 | 0.0 | 0.00 | 0.00 | 0.00 | 50 | 1012.8 | |
| 20260504150801 | 17 | 0.0 | 0.0 | 0.00 | 0.00 | 0.00 | 50 | 1012.8 | |
| 20260504150601 | 17 | 0.0 | 0.0 | 0.00 | 0.00 | 0.00 | 51 | 1012.9 | |
| 20260504150501 | 17 | 0.0 | 0.0 | 0.00 | 0.00 | 0.00 | 49 | 1012.9 | |
| 20260504141201 | 15 | 0.0 | 0.0 | 0.00 | 0.00 | 0.00 | 50 | 1013.4 | |
| 20260504141101 | 16 | 0.0 | 0.0 | 0.00 | 0.00 | 0.00 | 55 | 1013.3 | |
| 20260504141001 | 15 | 0.0 | 0.0 | 0.00 | 0.00 | 0.00 | 56 | 1013.4 | |
| 20260504140905 | 15 | 0.0 | 0.0 | 0.00 | 0.00 | 0.00 | 53 | 1013.4 | |
| 20260504140802 | 15 | 0.0 | 0.0 | 0.00 | 0.00 | 0.00 | 54 | 1013.4 | |
| 20260504140701 | 15 | 0.0 | 0.0 | 0.00 | 0.00 | 0.00 | 55 | 1013.4 | |
| 20260504140501 | 15 | 0.0 | 0.0 | 0.00 | 0.00 | 0.00 | 53 | 1013.4 | |
| 20260504140402 | 15 | 0.0 | 0.0 | 0.00 | 0.00 | 0.00 | 53 | 1013.4 | |
| 20260504140302 | 15 | 0.0 | 0.0 | 0.00 | 0.00 | 0.00 | 55 | 1013.4 | |
| 20260504140202 | 15 | 0.0 | 0.0 | 0.00 | 0.00 | 0.00 | 57 | 1013.4 | |
| 20260504130701 | 12 | 0.0 | 0.0 | 0.00 | 0.00 | 0.00 | 60 | 1013.8 | |
| 20260504130602 | 12 | 0.0 | 0.0 | 0.00 | 0.00 | 0.00 | 61 | 1013.8 | |
| 20260504130502 | 11 | 0.0 | 0.0 | 0.00 | 0.00 | 0.00 | 63 | 1013.8 | |
| 20260504130403 | 11 | 0.0 | 0.0 | 0.00 | 0.00 | 0.00 | 61 | 1013.9 | |
| 20260504130300 | 11 | 0.0 | 0.0 | 0.00 | 0.00 | 0.00 | 63 | 1013.9 | |
| 20260504120300 | 8 | 0.0 | 0.0 | 0.00 | 0.00 | 0.00 | 72 | 1014.0 | |
| 20260504120205 | 8 | 0.0 | 0.0 | 0.00 | 0.00 | 0.00 | 73 | 1014.1 | |
| 20260504110604 | 3 | 0.0 | 0.0 | 0.00 | 0.00 | 0.00 | 91 | 1013.9 | |
| 20260504110459 | 3 | 0.0 | 0.0 | 0.00 | 0.00 | 0.00 | 91 | 1014.0 | |
| 20260504110359 | 3 | 0.0 | 0.0 | 0.00 | 0.00 | 0.00 | 91 | 1014.0 | |
| 20260504110159 | 3 | 0.0 | 0.0 | 0.00 | 0.00 | 0.00 | 92 | 1014.0 | |
| 20260504100502 | 1 | 0.0 | 0.0 | 0.00 | 0.00 | 0.00 | 89 | 1014.2 | |
| 20260504100403 | 1 | 0.0 | 0.0 | 0.00 | 0.00 | 0.00 | 89 | 1014.2 | |
| 20260504100301 | 1 | 0.0 | 0.0 | 0.00 | 0.00 | 0.00 | 89 | 1014.1 | |
| 20260504081959 | 2 | 0.0 | 0.0 | 0.00 | 0.00 | 0.00 | 86 | 1014.4 | |
| 20260504081900 | 2 | 0.0 | 0.0 | 0.00 | 0.00 | 0.00 | 86 | 1014.4 | |
| 20260504081800 | 2 | 0.0 | 0.0 | 0.00 | 0.00 | 0.00 | 85 | 1014.4 | |
| 20260504081700 | 2 | 0.0 | 0.0 | 0.00 | 0.00 | 0.00 | 85 | 1014.4 | |
| 20260504081601 | 2 | 0.0 | 0.0 | 0.00 | 0.00 | 0.00 | 85 | 1014.4 | |
| 20260504081459 | 2 | 0.0 | 0.0 | 0.00 | 0.00 | 0.00 | 86 | 1014.4 | |
| 20260504081359 | 2 | 0.0 | 0.0 | 0.00 | 0.00 | 0.00 | 86 | 1014.4 | |
| 20260504081301 | 2 | 0.0 | 0.0 | 0.00 | 0.00 | 0.00 | 86 | 1014.4 | |
| 20260504081200 | 2 | 0.0 | 0.0 | 0.00 | 0.00 | 0.00 | 86 | 1014.3 | |
| 20260504081059 | 3 | 0.0 | 0.0 | 0.00 | 0.00 | 0.00 | 86 | 1014.3 | |
| 20260504081000 | 3 | 0.0 | 0.0 | 0.00 | 0.00 | 0.00 | 86 | 1014.4 | |
| 20260504080900 | 3 | 0.0 | 0.0 | 0.00 | 0.00 | 0.00 | 86 | 1014.4 | |
| 20260504080759 | 3 | 0.0 | 0.0 | 0.00 | 0.00 | 0.00 | 86 | 1014.4 | |
| 20260504080600 | 3 | 0.0 | 0.0 | 0.00 | 0.00 | 0.00 | 86 | 1014.4 | |
| 20260504080501 | 3 | 0.0 | 0.0 | 0.00 | 0.00 | 0.00 | 86 | 1014.3 | |
| 20260504080401 | 3 | 0.0 | 0.0 | 0.00 | 0.00 | 0.00 | 86 | 1014.3 | |
| 20260504080300 | 3 | 0.0 | 0.0 | 0.00 | 0.00 | 0.00 | 86 | 1014.3 | |
| 20260504080200 | 3 | 0.0 | 0.0 | 0.00 | 0.00 | 0.00 | 86 | 1014.3 | |
| 20260504070359 | 3 | 0.0 | 0.0 | 0.00 | 0.00 | 0.00 | 85 | 1014.3 | |
| 20260504070201 | 3 | 0.0 | 0.0 | 0.00 | 0.00 | 0.00 | 85 | 1014.3 | |
| 20260504060159 | 3 | 0.0 | 0.0 | 0.00 | 0.00 | 0.00 | 83 | 1014.3 | |
| 20260504050659 | 5 | 0.0 | 0.0 | 0.00 | 0.00 | 0.00 | 79 | 1014.3 | |
| 20260504050500 | 5 | 0.0 | 0.0 | 0.00 | 0.00 | 0.00 | 78 | 1014.3 | |
| 20260504050302 | 5 | 0.0 | 0.0 | 0.00 | 0.00 | 0.00 | 78 | 1014.4 | |
| 20260504050159 | 5 | 0.0 | 0.0 | 0.00 | 0.00 | 0.00 | 78 | 1014.4 | |
| 20260504050001 | 5 | 0.0 | 0.0 | 0.00 | 0.00 | 0.00 | 78 | 1014.3 | |
| 20260504045801 | 5 | 0.0 | 0.0 | 0.00 | 0.00 | 0.00 | 78 | 1014.3 | |
| 20260504045701 | 5 | 0.0 | 0.0 | 0.00 | 0.00 | 0.00 | 77 | 1014.3 | |
| 20260504045601 | 5 | 0.0 | 0.0 | 0.00 | 0.00 | 0.00 | 77 | 1014.3 | |
| 20260504045501 | 5 | 0.0 | 0.0 | 0.00 | 0.00 | 0.00 | 77 | 1014.4 | |
| 20260504045401 | 5 | 0.0 | 0.0 | 0.00 | 0.00 | 0.00 | 77 | 1014.3 | |
| 20260504045301 | 5 | 0.0 | 0.0 | 0.00 | 0.00 | 0.00 | 77 | 1014.3 | |
| 20260504045200 | 5 | 0.0 | 0.0 | 0.00 | 0.00 | 0.00 | 77 | 1014.3 | |
| 20260504045101 | 5 | 0.0 | 0.0 | 0.00 | 0.00 | 0.00 | 77 | 1014.3 | |
| 20260504044901 | 5 | 0.0 | 0.0 | 0.00 | 0.00 | 0.00 | 77 | 1014.4 | |
| 20260504044701 | 5 | 0.0 | 0.0 | 0.00 | 0.00 | 0.00 | 77 | 1014.4 | |
| 20260504044601 | 5 | 0.0 | 0.0 | 0.00 | 0.00 | 0.00 | 76 | 1014.4 | |
| 20260504044501 | 5 | 0.0 | 0.0 | 0.00 | 0.00 | 0.00 | 76 | 1014.4 | |
| 20260504044301 | 5 | 0.0 | 0.0 | 0.00 | 0.00 | 0.00 | 75 | 1014.4 | |
| 20260504044201 | 5 | 0.0 | 0.0 | 0.00 | 0.00 | 0.00 | 74 | 1014.5 | |
| 20260504044101 | 5 | 0.0 | 0.0 | 0.00 | 0.00 | 0.00 | 75 | 1014.5 | |
| 20260504044001 | 5 | 0.0 | 0.0 | 0.00 | 0.00 | 0.00 | 75 | 1014.4 | |
| 20260504043902 | 5 | 0.0 | 0.0 | 0.00 | 0.00 | 0.00 | 76 | 1014.4 | |
| 20260504043802 | 5 | 0.0 | 0.0 | 0.00 | 0.00 | 0.00 | 76 | 1014.4 | |
| 20260504043701 | 5 | 0.0 | 0.0 | 0.00 | 0.00 | 0.00 | 76 | 1014.4 | |
| 20260504043601 | 5 | 0.0 | 0.0 | 0.00 | 0.00 | 0.00 | 76 | 1014.3 | |
| 20260504043501 | 5 | 0.0 | 0.0 | 0.00 | 0.00 | 0.00 | 75 | 1014.3 | |
| 20260504043401 | 5 | 0.0 | 0.0 | 0.00 | 0.00 | 0.00 | 75 | 1014.3 | |
| 20260504043301 | 5 | 0.0 | 0.0 | 0.00 | 0.00 | 0.00 | 75 | 1014.3 | |
| 20260504043201 | 5 | 0.0 | 0.0 | 0.00 | 0.00 | 0.00 | 75 | 1014.3 | |
| 20260504043000 | 5 | 0.0 | 0.0 | 0.00 | 0.00 | 0.00 | 75 | 1014.2 | |
| 20260504042801 | 5 | 0.0 | 0.0 | 0.00 | 0.00 | 0.00 | 75 | 1014.3 | |
| 20260504042701 | 5 | 0.0 | 0.0 | 0.00 | 0.00 | 0.00 | 75 | 1014.3 | |
| 20260504042601 | 5 | 0.0 | 0.0 | 0.00 | 0.00 | 0.00 | 75 | 1014.3 | |
| 20260504042501 | 5 | 0.0 | 0.0 | 0.00 | 0.00 | 0.00 | 75 | 1014.3 | |
| 20260504042402 | 5 | 0.0 | 0.0 | 0.00 | 0.00 | 0.00 | 75 | 1014.2 | |
| 20260504042301 | 5 | 0.0 | 0.0 | 0.00 | 0.00 | 0.00 | 75 | 1014.2 | |
| 20260504042201 | 5 | 0.0 | 0.0 | 0.00 | 0.00 | 0.00 | 75 | 1014.3 | |
| 20260504042101 | 5 | 0.0 | 0.0 | 0.00 | 0.00 | 0.00 | 75 | 1014.2 | |
| 20260504042002 | 5 | 0.0 | 0.0 | 0.00 | 0.00 | 0.00 | 76 | 1014.3 | |
| 20260504041901 | 5 | 0.0 | 0.0 | 0.00 | 0.00 | 0.00 | 75 | 1014.3 | |
| 20260504041802 | 5 | 0.0 | 0.0 | 0.00 | 0.00 | 0.00 | 75 | 1014.3 | |
| 20260504041701 | 5 | 0.0 | 0.0 | 0.00 | 0.00 | 0.00 | 76 | 1014.2 | |
| 20260504041601 | 5 | 0.0 | 0.0 | 0.00 | 0.00 | 0.00 | 75 | 1014.2 | |
| 20260504041502 | 5 | 0.0 | 0.0 | 0.00 | 0.00 | 0.00 | 75 | 1014.3 | |
| 20260504041403 | 5 | 0.0 | 0.0 | 0.00 | 0.00 | 0.00 | 75 | 1014.3 | |
| 20260504041301 | 5 | 0.0 | 0.0 | 0.00 | 0.00 | 0.00 | 75 | 1014.3 | |
| 20260504041200 | 5 | 0.0 | 0.0 | 0.00 | 0.00 | 0.00 | 75 | 1014.3 | |
| 20260504040901 | 5 | 0.0 | 0.0 | 0.00 | 0.00 | 0.00 | 76 | 1014.3 | |
| 20260504040702 | 5 | 0.0 | 0.0 | 0.00 | 0.00 | 0.00 | 76 | 1014.3 | |
| 20260504040501 | 5 | 0.0 | 0.0 | 0.00 | 0.00 | 0.00 | 76 | 1014.3 | |
| 20260504040202 | 5 | 0.0 | 0.0 | 0.00 | 0.00 | 0.00 | 75 | 1014.2 | |
| 20260504040003 | 5 | 0.0 | 0.0 | 0.00 | 0.00 | 0.00 | 74 | 1014.3 | |
| 20260504035802 | 5 | 0.0 | 0.0 | 0.00 | 0.00 | 0.00 | 75 | 1014.2 | |
| 20260504035603 | 5 | 0.0 | 0.0 | 0.00 | 0.00 | 0.00 | 77 | 1014.2 | |
| 20260504035502 | 5 | 0.0 | 0.0 | 0.00 | 0.00 | 0.00 | 76 | 1014.2 | |
| 20260504035403 | 5 | 0.0 | 0.0 | 0.00 | 0.00 | 0.00 | 76 | 1014.2 | |
| 20260504035203 | 5 | 0.0 | 0.0 | 0.00 | 0.00 | 0.00 | 76 | 1014.2 | |
| 20260504035103 | 5 | 0.0 | 0.0 | 0.00 | 0.00 | 0.00 | 75 | 1014.1 | |
| 20260504035004 | 5 | 0.0 | 0.0 | 0.00 | 0.00 | 0.00 | 75 | 1014.1 | |
| 20260504034904 | 5 | 0.0 | 0.0 | 0.00 | 0.00 | 0.00 | 75 | 1014.1 | |
| 20260504034804 | 6 | 0.0 | 0.0 | 0.00 | 0.00 | 0.00 | 76 | 1014.1 | |
| 20260504034602 | 6 | 0.0 | 0.0 | 0.00 | 0.00 | 0.00 | 75 | 1014.1 | |
| 20260504034503 | 6 | 0.0 | 0.0 | 0.00 | 0.00 | 0.00 | 75 | 1014.1 | |
| 20260504034403 | 6 | 0.0 | 0.0 | 0.00 | 0.00 | 0.00 | 76 | 1014.1 | |
| 20260504034303 | 6 | 0.0 | 0.0 | 0.00 | 0.00 | 0.00 | 75 | 1014.0 | |
| 20260504034203 | 6 | 0.0 | 0.0 | 0.00 | 0.00 | 0.00 | 75 | 1014.0 | |
| 20260504034102 | 6 | 0.0 | 0.0 | 0.00 | 0.00 | 0.00 | 75 | 1014.0 | |
| 20260504034003 | 6 | 0.0 | 0.0 | 0.00 | 0.00 | 0.00 | 76 | 1014.0 | |
| 20260504033902 | 6 | 0.0 | 0.0 | 0.00 | 0.00 | 0.00 | 76 | 1014.0 | |
| 20260504033804 | 6 | 0.0 | 0.0 | 0.00 | 0.00 | 0.00 | 76 | 1014.0 | |
| 20260504033503 | 6 | 0.0 | 0.0 | 0.00 | 0.00 | 0.00 | 75 | 1014.0 | |
| 20260504033302 | 6 | 0.0 | 0.0 | 0.00 | 0.00 | 0.00 | 75 | 1014.0 | |
| 20260504033104 | 6 | 0.0 | 0.0 | 0.00 | 0.00 | 0.00 | 74 | 1014.0 | |
| 20260504033002 | 6 | 0.0 | 0.0 | 0.00 | 0.00 | 0.00 | 74 | 1014.0 | |
| 20260504032902 | 6 | 0.0 | 0.0 | 0.00 | 0.00 | 0.00 | 74 | 1014.0 | |
| 20260504032802 | 6 | 0.0 | 0.0 | 0.00 | 0.00 | 0.00 | 74 | 1014.1 | |
| 20260504032703 | 6 | 0.0 | 0.0 | 0.00 | 0.00 | 0.00 | 73 | 1014.0 | |
| 20260504032603 | 6 | 0.0 | 0.0 | 0.00 | 0.00 | 0.00 | 74 | 1014.0 | |
| 20260504032502 | 6 | 0.0 | 0.0 | 0.00 | 0.00 | 0.00 | 74 | 1014.0 | |
| 20260504032402 | 6 | 0.0 | 0.0 | 0.00 | 0.00 | 0.00 | 75 | 1014.0 | |
| 20260504032304 | 6 | 0.0 | 0.0 | 0.00 | 0.00 | 0.00 | 75 | 1014.0 | |
| 20260504032203 | 6 | 0.0 | 0.0 | 0.00 | 0.00 | 0.00 | 75 | 1014.0 | |
| 20260504032103 | 6 | 0.0 | 0.0 | 0.00 | 0.00 | 0.00 | 74 | 1014.0 | |
| 20260504031902 | 6 | 0.0 | 0.0 | 0.00 | 0.00 | 0.00 | 75 | 1014.0 | |
| 20260504031702 | 6 | 0.0 | 0.0 | 0.00 | 0.00 | 0.00 | 74 | 1013.9 | |
| 20260504031603 | 6 | 0.0 | 0.0 | 0.00 | 0.00 | 0.00 | 74 | 1014.0 | |
| 20260504031503 | 6 | 0.0 | 0.0 | 0.00 | 0.00 | 0.00 | 74 | 1014.0 | |
| 20260504031403 | 6 | 0.0 | 0.0 | 0.00 | 0.00 | 0.00 | 73 | 1013.9 | |
| 20260504031303 | 6 | 0.0 | 0.0 | 0.00 | 0.00 | 0.00 | 73 | 1013.9 | |
| 20260504031203 | 6 | 0.0 | 0.0 | 0.00 | 0.00 | 0.00 | 73 | 1013.9 | |
| 20260504031002 | 6 | 0.0 | 0.0 | 0.00 | 0.00 | 0.00 | 73 | 1013.9 | |
| 20260504030802 | 6 | 0.0 | 0.0 | 0.00 | 0.00 | 0.00 | 72 | 1013.8 | |
| 20260504030703 | 6 | 0.0 | 0.0 | 0.00 | 0.00 | 0.00 | 72 | 1013.8 | |
| 20260504030602 | 6 | 0.0 | 0.0 | 0.00 | 0.00 | 0.00 | 71 | 1013.9 | |
| 20260504030503 | 6 | 0.0 | 0.0 | 0.00 | 0.00 | 0.00 | 73 | 1013.8 | |
| 20260504030402 | 6 | 0.0 | 0.0 | 0.00 | 0.00 | 0.00 | 71 | 1013.8 | |
| 20260504030303 | 6 | 0.0 | 0.0 | 0.00 | 0.00 | 0.00 | 72 | 1013.8 | |
| 20260504030203 | 6 | 0.0 | 0.0 | 0.00 | 0.00 | 0.00 | 72 | 1013.8 | |
| 20260504030002 | 6 | 0.0 | 0.0 | 0.00 | 0.00 | 0.00 | 73 | 1013.8 | |
| 20260504025902 | 6 | 0.0 | 0.0 | 0.00 | 0.00 | 0.00 | 74 | 1013.8 | |
| 20260504025703 | 6 | 0.0 | 0.0 | 0.00 | 0.00 | 0.00 | 74 | 1013.8 | |
| 20260504025602 | 6 | 0.0 | 0.0 | 0.00 | 0.00 | 0.00 | 73 | 1013.8 | |
| 20260504025502 | 6 | 0.0 | 0.0 | 0.00 | 0.00 | 0.00 | 73 | 1013.8 | |
| 20260504025402 | 6 | 0.0 | 0.0 | 0.00 | 0.00 | 0.00 | 72 | 1013.8 | |
| 20260504025301 | 6 | 0.0 | 0.0 | 0.00 | 0.00 | 0.00 | 72 | 1013.8 | |
| 20260504025202 | 6 | 0.0 | 0.0 | 0.00 | 0.00 | 0.00 | 72 | 1013.8 | |
| 20260504025002 | 6 | 0.0 | 0.0 | 0.00 | 0.00 | 0.00 | 73 | 1013.8 | |
| 20260504024903 | 6 | 0.0 | 0.0 | 0.00 | 0.00 | 0.00 | 74 | 1013.8 | |
| 20260504024802 | 6 | 0.0 | 0.0 | 0.00 | 0.00 | 0.00 | 73 | 1013.9 | |
| 20260504024703 | 6 | 0.0 | 0.0 | 0.00 | 0.00 | 0.00 | 72 | 1013.9 | |
| 20260504024602 | 6 | 0.0 | 0.0 | 0.00 | 0.00 | 0.00 | 72 | 1013.9 | |
| 20260504024502 | 6 | 0.0 | 0.0 | 0.00 | 0.00 | 0.00 | 73 | 1013.9 | |
| 20260504024402 | 6 | 0.0 | 0.0 | 0.00 | 0.00 | 0.00 | 72 | 1013.9 | |
| 20260504024302 | 6 | 0.0 | 0.0 | 0.00 | 0.00 | 0.00 | 72 | 1013.9 | |
| 20260504024202 | 6 | 0.0 | 0.0 | 0.00 | 0.00 | 0.00 | 73 | 1013.9 | |
| 20260504024002 | 6 | 0.0 | 0.0 | 0.00 | 0.00 | 0.00 | 72 | 1013.9 | |
| 20260504023902 | 6 | 0.0 | 0.0 | 0.00 | 0.00 | 0.00 | 71 | 1013.9 | |
| 20260504023802 | 6 | 0.0 | 0.0 | 0.00 | 0.00 | 0.00 | 71 | 1013.9 | |
| 20260504023702 | 6 | 0.0 | 0.0 | 0.00 | 0.00 | 0.00 | 71 | 1013.9 | |
| 20260504023601 | 6 | 0.0 | 0.0 | 0.00 | 0.00 | 0.00 | 70 | 1013.9 | |
| 20260504023502 | 6 | 0.0 | 0.0 | 0.00 | 0.00 | 0.00 | 70 | 1013.9 | |
| 20260504023401 | 6 | 0.0 | 0.0 | 0.00 | 0.00 | 0.00 | 70 | 1013.9 | |
| 20260504023201 | 6 | 0.0 | 0.0 | 0.00 | 0.00 | 0.00 | 69 | 1013.9 | |
| 20260504023102 | 7 | 0.0 | 0.0 | 0.00 | 0.00 | 0.00 | 69 | 1013.9 | |
| 20260504022902 | 7 | 0.0 | 0.0 | 0.00 | 0.00 | 0.00 | 69 | 1013.8 | |
| 20260504022801 | 7 | 0.0 | 0.0 | 0.00 | 0.00 | 0.00 | 69 | 1013.9 | |
| 20260504022701 | 7 | 0.0 | 0.0 | 0.00 | 0.00 | 0.00 | 69 | 1013.9 | |
| 20260504022602 | 7 | 0.0 | 0.0 | 0.00 | 0.00 | 0.00 | 69 | 1013.9 | |
| 20260504022402 | 7 | 0.0 | 0.0 | 0.00 | 0.00 | 0.00 | 69 | 1013.9 | |
| 20260504022202 | 7 | 0.0 | 0.0 | 0.00 | 0.00 | 0.00 | 66 | 1014.0 | |
| 20260504022002 | 7 | 0.0 | 0.0 | 0.00 | 0.00 | 0.00 | 66 | 1014.0 | |
| 20260504021903 | 7 | 0.0 | 0.0 | 0.00 | 0.00 | 0.00 | 67 | 1014.0 | |
| 20260504021801 | 7 | 0.0 | 0.0 | 0.00 | 0.00 | 0.00 | 68 | 1014.0 | |
| 20260504021601 | 7 | 0.0 | 0.0 | 0.00 | 0.00 | 0.00 | 67 | 1013.9 | |
| 20260504021502 | 7 | 0.0 | 0.0 | 0.00 | 0.00 | 0.00 | 68 | 1013.9 | |
| 20260504021402 | 7 | 0.0 | 0.0 | 0.00 | 0.00 | 0.00 | 67 | 1013.9 | |
| 20260504021302 | 7 | 0.0 | 0.0 | 0.00 | 0.00 | 0.00 | 68 | 1013.9 | |
| 20260504021201 | 7 | 0.0 | 0.0 | 0.00 | 0.00 | 0.00 | 67 | 1013.9 | |
| 20260504021001 | 7 | 0.0 | 0.0 | 0.00 | 0.00 | 0.00 | 67 | 1013.9 | |
| 20260504020702 | 7 | 0.0 | 0.0 | 0.00 | 0.00 | 0.00 | 69 | 1013.9 | |
| 20260504020502 | 7 | 0.0 | 0.0 | 0.00 | 0.00 | 0.00 | 65 | 1013.9 | |
| 20260504020403 | 7 | 0.0 | 0.0 | 0.00 | 0.00 | 0.00 | 66 | 1013.9 | |
| 20260504020302 | 7 | 0.0 | 0.0 | 0.00 | 0.00 | 0.00 | 66 | 1013.9 | |
| 20260504020201 | 7 | 0.0 | 0.0 | 0.00 | 0.00 | 0.00 | 65 | 1013.9 | |
| 20260504020004 | 7 | 0.0 | 0.0 | 0.00 | 0.00 | 0.00 | 66 | 1013.9 | |
| 20260504015903 | 7 | 0.0 | 0.0 | 0.00 | 0.00 | 0.00 | 66 | 1013.9 | |
| 20260504015703 | 7 | 0.0 | 0.0 | 0.00 | 0.00 | 0.00 | 67 | 1013.9 | |
| 20260504015604 | 7 | 0.0 | 0.0 | 0.00 | 0.00 | 0.00 | 68 | 1013.8 | |
| 20260504015504 | 7 | 0.0 | 0.0 | 0.00 | 0.00 | 0.00 | 67 | 1013.8 | |
| 20260504015404 | 8 | 0.0 | 0.0 | 0.00 | 0.00 | 0.00 | 66 | 1013.8 | |
| 20260504015304 | 8 | 0.0 | 0.0 | 0.00 | 0.00 | 0.00 | 65 | 1013.8 | |
| 20260504015203 | 8 | 0.0 | 0.0 | 0.00 | 0.00 | 0.00 | 63 | 1013.8 | |
| 20260504015003 | 8 | 0.0 | 0.0 | 0.00 | 0.00 | 0.00 | 63 | 1013.8 | |
| 20260504014903 | 8 | 0.0 | 0.0 | 0.00 | 0.00 | 0.00 | 63 | 1013.8 | |
| 20260504014802 | 8 | 0.0 | 0.0 | 0.00 | 0.00 | 0.00 | 63 | 1013.8 | |
| 20260504014702 | 8 | 0.0 | 0.0 | 0.00 | 0.00 | 0.00 | 63 | 1013.8 | |
| 20260504014602 | 8 | 0.0 | 0.0 | 0.00 | 0.00 | 0.00 | 63 | 1013.8 | |
| 20260504014504 | 8 | 0.0 | 0.0 | 0.00 | 0.00 | 0.00 | 64 | 1013.8 | |
| 20260504014405 | 8 | 0.0 | 0.0 | 0.00 | 0.00 | 0.00 | 64 | 1013.8 | |
| 20260504014303 | 8 | 0.0 | 0.0 | 0.00 | 0.00 | 0.00 | 64 | 1013.8 | |
| 20260504014205 | 8 | 0.0 | 0.0 | 0.00 | 0.00 | 0.00 | 62 | 1013.8 | |
| 20260504014102 | 8 | 0.0 | 0.0 | 0.00 | 0.00 | 0.00 | 62 | 1013.8 | |
| 20260504014003 | 8 | 0.0 | 0.0 | 0.00 | 0.00 | 0.00 | 62 | 1013.8 | |
| 20260504013904 | 8 | 0.0 | 0.0 | 0.00 | 0.00 | 0.00 | 62 | 1013.7 | |
| 20260504013804 | 8 | 0.0 | 0.0 | 0.00 | 0.00 | 0.00 | 61 | 1013.7 | |
| 20260504013702 | 8 | 0.0 | 0.0 | 0.00 | 0.00 | 0.00 | 61 | 1013.7 | |
| 20260504013603 | 8 | 0.0 | 0.0 | 0.00 | 0.00 | 0.00 | 61 | 1013.7 | |
| 20260504013503 | 8 | 0.0 | 0.0 | 0.00 | 0.00 | 0.00 | 61 | 1013.7 | |
| 20260504013402 | 8 | 0.0 | 0.0 | 0.00 | 0.00 | 0.00 | 61 | 1013.7 | |
| 20260504013303 | 8 | 0.0 | 0.0 | 0.00 | 0.00 | 0.00 | 61 | 1013.7 | |
| 20260504013202 | 8 | 0.0 | 0.0 | 0.00 | 0.00 | 0.00 | 61 | 1013.7 | |
| 20260504013103 | 8 | 0.0 | 0.0 | 0.00 | 0.00 | 0.00 | 61 | 1013.7 | |
| 20260504012802 | 9 | 0.0 | 0.0 | 0.00 | 0.00 | 0.00 | 60 | 1013.7 | |
| 20260504012704 | 9 | 0.0 | 0.0 | 0.00 | 0.00 | 0.00 | 59 | 1013.7 | |
| 20260504012603 | 9 | 0.0 | 0.0 | 0.00 | 0.00 | 0.00 | 59 | 1013.7 | |
| 20260504012502 | 9 | 0.0 | 0.0 | 0.00 | 0.00 | 0.00 | 58 | 1013.7 | |
| 20260504012404 | 9 | 0.0 | 0.0 | 0.00 | 0.00 | 0.00 | 59 | 1013.7 | |
| 20260504012304 | 9 | 0.0 | 0.0 | 0.00 | 0.00 | 0.00 | 58 | 1013.7 | |
| 20260504012202 | 9 | 0.0 | 0.0 | 0.00 | 0.00 | 0.00 | 58 | 1013.7 | |
| 20260504012103 | 9 | 0.0 | 0.0 | 0.00 | 0.00 | 0.00 | 58 | 1013.7 | |
| 20260504011902 | 9 | 0.0 | 0.0 | 0.00 | 0.00 | 0.00 | 58 | 1013.6 | |
| 20260504011804 | 10 | 0.0 | 0.0 | 0.00 | 0.00 | 0.00 | 57 | 1013.7 | |
| 20260504011702 | 10 | 0.0 | 0.0 | 0.00 | 0.00 | 0.00 | 58 | 1013.6 | |
| 20260504011603 | 10 | 0.0 | 0.0 | 0.00 | 0.00 | 0.00 | 58 | 1013.6 | |
| 20260504011503 | 10 | 0.0 | 0.0 | 0.00 | 0.00 | 0.00 | 58 | 1013.6 | |
| 20260504011403 | 10 | 0.0 | 0.0 | 0.00 | 0.00 | 0.00 | 59 | 1013.6 | |
| 20260504011302 | 10 | 0.0 | 0.0 | 0.00 | 0.00 | 0.00 | 60 | 1013.5 | |
| 20260504011204 | 10 | 0.0 | 0.0 | 0.00 | 0.00 | 0.00 | 59 | 1013.5 | |
| 20260504011104 | 10 | 0.0 | 1054.1 | 23.47 | 0.00 | 0.00 | 59 | ||
| 20260504011004 | 10 | 0.0 | 0.0 | 0.00 | 0.00 | 0.00 | 59 | 1013.5 | |
| 20260504010903 | 10 | 0.0 | 0.0 | 0.00 | 0.00 | 0.00 | 59 | 1013.5 | |
| 20260504010804 | 10 | 0.0 | 0.0 | 0.00 | 0.00 | 0.00 | 57 | 1013.5 | |
| 20260504010702 | 10 | 0.0 | 0.0 | 0.00 | 0.00 | 0.00 | 57 | 1013.5 | |
| 20260504010604 | 10 | 0.0 | 0.0 | 0.00 | 0.00 | 0.00 | 57 | 1013.5 | |
| 20260504010503 | 10 | 0.0 | 0.0 | 0.00 | 0.00 | 0.00 | 55 | 1013.5 | |
| 20260504010403 | 10 | 0.0 | 0.0 | 0.00 | 0.00 | 0.00 | 55 | 1013.5 | |
| 20260504010303 | 10 | 0.0 | 0.0 | 0.00 | 0.00 | 0.00 | 55 | 1013.5 | |
| 20260504010204 | 10 | 0.0 | 0.0 | 0.00 | 0.00 | 0.00 | 54 | 1013.5 | |
| 20260504010002 | 11 | 0.0 | 0.0 | 0.00 | 0.00 | 0.00 | 53 | 1013.5 | |
| 20260504005902 | 11 | 0.0 | 0.0 | 0.00 | 0.00 | 0.00 | 52 | 1013.5 | |
| 20260504005802 | 11 | 0.0 | 0.0 | 0.00 | 0.00 | 0.00 | 52 | 1013.5 | |
| 20260504005602 | 11 | 0.0 | 0.0 | 0.00 | 0.00 | 0.00 | 51 | 1013.5 | |
| 20260504005501 | 11 | 0.0 | 0.0 | 0.00 | 0.00 | 0.00 | 52 | 1013.5 | |
| 20260504005402 | 11 | 0.0 | 0.0 | 0.00 | 0.00 | 0.00 | 54 | 1013.5 | |
| 20260504005202 | 11 | 0.0 | 0.0 | 0.00 | 0.00 | 0.00 | 52 | 1013.5 | |
| 20260504005102 | 11 | 0.0 | 0.0 | 0.00 | 0.00 | 0.00 | 53 | 1013.5 | |
| 20260504005002 | 11 | 0.0 | 0.0 | 0.00 | 0.00 | 0.00 | 52 | 1013.5 | |
| 20260504004902 | 11 | 0.0 | 0.0 | 0.00 | 0.00 | 0.00 | 52 | 1013.5 | |
| 20260504004702 | 11 | 0.0 | 0.0 | 0.00 | 0.00 | 0.00 | 52 | 1013.5 | |
| 20260504004602 | 11 | 0.0 | 0.0 | 0.00 | 0.00 | 0.00 | 51 | 1013.5 | |
| 20260504004502 | 11 | 0.0 | 0.0 | 0.00 | 0.00 | 0.00 | 51 | 1013.5 | |
| 20260504004403 | 11 | 0.0 | 0.0 | 0.00 | 0.00 | 0.00 | 51 | 1013.5 | |
| 20260504004302 | 12 | 0.0 | 0.0 | 0.00 | 0.00 | 0.00 | 51 | 1013.4 | |
| 20260504004003 | 12 | 0.0 | 0.0 | 0.00 | 0.00 | 0.00 | 49 | 1013.4 | |
| 20260504003902 | 12 | 0.0 | 0.0 | 0.00 | 0.00 | 0.00 | 48 | 1013.4 | |
| 20260504003802 | 12 | 0.0 | 0.0 | 0.00 | 0.00 | 0.00 | 47 | 1013.4 | |
| 20260504003702 | 12 | 0.0 | 0.0 | 0.00 | 0.00 | 0.00 | 48 | 1013.4 | |
| 20260504003602 | 12 | 0.0 | 0.0 | 0.00 | 0.00 | 0.00 | 47 | 1013.4 | |
| 20260504003501 | 12 | 0.0 | 0.0 | 0.00 | 0.00 | 0.00 | 47 | 1013.3 | |
| 20260504003402 | 12 | 0.0 | 0.0 | 0.00 | 0.00 | 0.00 | 46 | 1013.3 | |
| 20260504003101 | 12 | 0.0 | 0.0 | 0.00 | 0.00 | 0.00 | 47 | 1013.4 | |
| 20260504003002 | 12 | 0.0 | 0.0 | 0.00 | 0.00 | 0.00 | 46 | 1013.3 | |
| 20260504002902 | 12 | 0.0 | 0.0 | 0.00 | 0.00 | 0.00 | 46 | 1013.3 | |
| 20260504002801 | 12 | 0.0 | 0.0 | 0.00 | 0.00 | 0.00 | 46 | 1013.3 | |
| 20260504002702 | 12 | 0.0 | 0.0 | 0.00 | 0.00 | 0.00 | 47 | 1013.3 | |
| 20260504002401 | 12 | 0.0 | 0.0 | 0.00 | 0.00 | 0.00 | 48 | 1013.3 | |
| 20260504002304 | 12 | 0.0 | 0.0 | 0.00 | 0.00 | 0.00 | 45 | 1013.3 | |
| 20260504002202 | 12 | 0.0 | 0.0 | 0.00 | 0.00 | 0.00 | 46 | 1013.2 | |
| 20260504002102 | 12 | 0.0 | 0.0 | 0.00 | 0.00 | 0.00 | 45 | 1013.2 | |
| 20260504002004 | 12 | 0.0 | 0.0 | 0.00 | 0.00 | 0.00 | 45 | 1013.3 | |
| 20260504001902 | 13 | 0.0 | 0.0 | 0.00 | 0.00 | 0.00 | 45 | 1013.2 | |
| 20260504001802 | 13 | 0.0 | 0.0 | 0.00 | 0.00 | 0.00 | 45 | 1013.3 | |
| 20260504001701 | 13 | 0.0 | 0.0 | 0.00 | 0.00 | 0.00 | 44 | 1013.3 | |
| 20260504001503 | 13 | 0.0 | 0.0 | 0.00 | 0.00 | 0.00 | 43 | 1013.2 | |
| 20260504001402 | 13 | 0.0 | 0.0 | 0.00 | 0.00 | 0.00 | 43 | 1013.2 | |
| 20260504001303 | 13 | 0.0 | 0.0 | 0.00 | 0.00 | 0.00 | 43 | 1013.2 | |
| 20260504001202 | 13 | 0.0 | 0.0 | 0.00 | 0.00 | 0.00 | 43 | 1013.2 | |
| 20260504001102 | 13 | 0.0 | 0.0 | 0.00 | 0.00 | 0.00 | 43 | 1013.2 | |
| 20260504000901 | 13 | 0.0 | 0.0 | 0.00 | 0.00 | 0.00 | 43 | 1013.2 | |
| 20260504000802 | 13 | 0.0 | 0.0 | 0.00 | 0.00 | 0.00 | 44 | 1013.1 | |
| 20260504000701 | 13 | 0.0 | 0.0 | 0.00 | 0.00 | 0.00 | 47 | 1013.1 | |
| 20260504000604 | 13 | 0.0 | 0.0 | 0.00 | 0.00 | 0.00 | 42 | 1013.1 | |
| 20260504000501 | 13 | 0.0 | 0.0 | 0.00 | 0.00 | 0.00 | 42 | 1013.1 | |
| 20260504000402 | 13 | 0.0 | 0.0 | 0.00 | 0.00 | 0.00 | 42 | 1013.1 | |
| 20260504000302 | 13 | 0.0 | 0.0 | 0.00 | 0.00 | 0.00 | 42 | 1013.0 | |
| 20260504000204 | 13 | 0.0 | 0.0 | 0.00 | 0.00 | 0.00 | 42 | 1013.0 | |
| 20260504000003 | 13 | 0.0 | 0.0 | 0.00 | 0.00 | 0.00 | 41 | 1013.0 | |
| 20260503235802 | 13 | 0.0 | 0.0 | 0.00 | 0.00 | 0.00 | 41 | 1013.0 | |
| 20260503235702 | 13 | 0.0 | 0.0 | 0.00 | 0.00 | 0.00 | 41 | 1013.0 | |
| 20260503235604 | 13 | 0.0 | 0.0 | 0.00 | 0.00 | 0.00 | 41 | 1013.0 | |
| 20260503235502 | 13 | 0.0 | 0.0 | 0.00 | 0.00 | 0.00 | 42 | 1013.0 | |
| 20260503235402 | 13 | 0.0 | 0.0 | 0.00 | 0.00 | 0.00 | 41 | 1012.9 | |
| 20260503235301 | 13 | 0.0 | 0.0 | 0.00 | 0.00 | 0.00 | 41 | 1012.9 | |
| 20260503235202 | 13 | 0.0 | 0.0 | 0.00 | 0.00 | 0.00 | 41 | 1012.9 | |
| 20260503235101 | 13 | 0.0 | 0.0 | 0.00 | 0.00 | 0.00 | 41 | 1012.8 | |
| 20260503235002 | 13 | 0.0 | 0.0 | 0.00 | 0.00 | 0.00 | 41 | 1012.8 | |
| 20260503234902 | 13 | 0.0 | 0.0 | 0.00 | 0.00 | 0.00 | 40 | 1012.8 | |
| 20260503234702 | 14 | 0.0 | 0.0 | 0.00 | 0.00 | 0.00 | 41 | 1012.8 | |
| 20260503234602 | 14 | 0.0 | 0.0 | 0.00 | 0.00 | 0.00 | 41 | 1012.8 | |
| 20260503234501 | 14 | 0.0 | 0.0 | 0.00 | 0.00 | 0.00 | 41 | 1012.8 | |
| 20260503234202 | 14 | 0.0 | 0.0 | 0.00 | 0.00 | 0.00 | 40 | 1012.8 | |
| 20260503234101 | 14 | 0.0 | 0.0 | 0.00 | 0.00 | 0.00 | 40 | 1012.8 | |
| 20260503234002 | 14 | 0.0 | 0.0 | 0.00 | 0.00 | 0.00 | 40 | 1012.7 | |
| 20260503233903 | 14 | 0.0 | 0.0 | 0.00 | 0.00 | 0.00 | 40 | 1012.8 | |
| 20260503233801 | 14 | 0.0 | 0.0 | 0.00 | 0.00 | 0.00 | 40 | 1012.7 | |
| 20260503233702 | 14 | 0.0 | 0.0 | 0.00 | 0.00 | 0.00 | 40 | 1012.8 | |
| 20260503233602 | 14 | 0.0 | 0.0 | 0.00 | 0.00 | 0.00 | 39 | 1012.8 | |
| 20260503233502 | 14 | 0.0 | 0.0 | 0.00 | 0.00 | 0.00 | 40 | 1012.8 | |
| 20260503233402 | 14 | 0.0 | 0.0 | 0.00 | 0.00 | 0.00 | 40 | 1012.8 | |
| 20260503233301 | 14 | 0.0 | 0.0 | 0.00 | 0.00 | 0.00 | 40 | 1012.8 | |
| 20260503233102 | 15 | 0.0 | 0.0 | 0.00 | 0.00 | 0.00 | 40 | 1012.8 | |
| 20260503233002 | 15 | 0.0 | 0.0 | 0.00 | 0.00 | 0.00 | 39 | 1012.8 | |
| 20260503232901 | 15 | 0.0 | 0.0 | 0.00 | 0.00 | 0.00 | 39 | 1012.8 | |
| 20260503232702 | 15 | 0.0 | 0.0 | 0.00 | 0.00 | 0.00 | 40 | 1012.7 | |
| 20260503232602 | 15 | 0.0 | 0.0 | 0.00 | 0.00 | 0.00 | 39 | 1012.8 | |
| 20260503232503 | 15 | 0.0 | 0.0 | 0.00 | 0.00 | 0.00 | 38 | 1012.8 | |
| 20260503232402 | 15 | 0.0 | 0.0 | 0.00 | 0.00 | 0.00 | 38 | 1012.8 | |
| 20260503232305 | 15 | 0.0 | 0.0 | 0.00 | 0.00 | 0.00 | 39 | 1012.7 | |
| 20260503232202 | 15 | 0.0 | 0.0 | 0.00 | 0.00 | 0.00 | 39 | 1012.8 | |
| 20260503232102 | 15 | 0.0 | 0.0 | 0.00 | 0.00 | 0.00 | 40 | 1012.7 | |
| 20260503231902 | 15 | 0.0 | 0.0 | 0.00 | 0.00 | 0.00 | 38 | 1012.8 | |
| 20260503231804 | 15 | 0.0 | 0.0 | 0.00 | 0.00 | 0.00 | 39 | 1012.8 | |
| 20260503231702 | 15 | 0.0 | 0.0 | 0.00 | 0.00 | 0.00 | 39 | 1012.7 | |
| 20260503231601 | 15 | 0.0 | 0.0 | 0.00 | 0.00 | 0.00 | 40 | 1012.7 | |
| 20260503231401 | 15 | 0.0 | 0.0 | 0.00 | 0.00 | 0.00 | 39 | 1012.7 | |
| 20260503231305 | 15 | 0.0 | 0.0 | 0.00 | 0.00 | 0.00 | 39 | 1012.7 | |
| 20260503231202 | 15 | 0.0 | 0.0 | 0.00 | 0.00 | 0.00 | 38 | 1012.7 | |
| 20260503230902 | 15 | 0.0 | 0.0 | 0.00 | 0.00 | 0.00 | 39 | 1012.7 | |
| 20260503230702 | 15 | 0.0 | 0.0 | 0.00 | 0.00 | 0.00 | 37 | 1012.7 | |
| 20260503230603 | 15 | 0.0 | 0.0 | 0.00 | 0.00 | 0.00 | 39 | 1012.7 | |
| 20260503230502 | 15 | 0.0 | 0.0 | 0.00 | 0.00 | 0.00 | 37 | 1012.7 | |
| 20260503230402 | 15 | 0.0 | 0.0 | 0.00 | 0.00 | 0.00 | 37 | 1012.7 | |
| 20260503230201 | 15 | 0.0 | 0.0 | 0.00 | 0.00 | 0.00 | 38 | 1012.8 | |
| 20260503230004 | 15 | 0.0 | 0.0 | 0.00 | 0.00 | 0.00 | 37 | 1012.7 | |
| 20260503225902 | 15 | 0.0 | 0.0 | 0.00 | 0.00 | 0.00 | 37 | 1012.7 | |
| 20260503225802 | 15 | 0.0 | 0.0 | 0.00 | 0.00 | 0.00 | 37 | 1012.7 | |
| 20260503225702 | 15 | 0.0 | 0.0 | 0.00 | 0.00 | 0.00 | 37 | 1012.7 | |
| 20260503225603 | 15 | 0.0 | 0.0 | 0.00 | 0.00 | 0.00 | 37 | 1012.6 | |
| 20260503225502 | 15 | 0.0 | 0.0 | 0.00 | 0.00 | 0.00 | 37 | 1012.6 | |
| 20260503225403 | 16 | 0.0 | 0.0 | 0.00 | 0.00 | 0.00 | 38 | 1012.7 | |
| 20260503225306 | 16 | 0.0 | 0.0 | 0.00 | 0.00 | 0.00 | 38 | 1012.6 | |
| 20260503225202 | 16 | 0.0 | 0.0 | 0.00 | 0.00 | 0.00 | 37 | 1012.7 | |
| 20260503225001 | 16 | 0.0 | 0.0 | 0.00 | 0.00 | 0.00 | 38 | 1012.7 | |
| 20260503224901 | 16 | 0.0 | 0.0 | 0.00 | 0.00 | 0.00 | 38 | 1012.7 | |
| 20260503224802 | 16 | 0.0 | 0.0 | 0.00 | 0.00 | 0.00 | 39 | 1012.7 | |
| 20260503224702 | 16 | 0.0 | 0.0 | 0.00 | 0.00 | 0.00 | 39 | 1012.7 | |
| 20260503224602 | 16 | 0.0 | 0.0 | 0.00 | 0.00 | 0.00 | 38 | 1012.7 | |
| 20260503224303 | 16 | 0.0 | 0.0 | 0.00 | 0.00 | 0.00 | 38 | 1012.7 | |
| 20260503224103 | 16 | 0.0 | 0.0 | 0.00 | 0.00 | 0.00 | 39 | 1012.7 | |
| 20260503224003 | 16 | 0.0 | 0.0 | 0.00 | 0.00 | 0.00 | 38 | 1012.7 | |
| 20260503223902 | 16 | 0.0 | 0.0 | 0.00 | 0.00 | 0.00 | 38 | 1012.6 | |
| 20260503223801 | 16 | 0.0 | 0.0 | 0.00 | 0.00 | 0.00 | 38 | 1012.6 | |
| 20260503223702 | 16 | 0.0 | 0.0 | 0.00 | 0.00 | 0.00 | 37 | 1012.6 | |
| 20260503223601 | 16 | 0.0 | 0.0 | 0.00 | 0.00 | 0.00 | 37 | 1012.7 | |
| 20260503223501 | 16 | 0.0 | 0.0 | 0.00 | 0.00 | 0.00 | 37 | 1012.5 | |
| 20260503223202 | 16 | 0.0 | 0.0 | 0.00 | 0.00 | 0.00 | 40 | 1012.7 | |
| 20260503223102 | 16 | 0.0 | 0.0 | 0.00 | 0.00 | 0.00 | 37 | 1012.6 | |
| 20260503223003 | 16 | 0.0 | 0.0 | 0.00 | 0.00 | 0.00 | 37 | 1012.7 | |
| 20260503222902 | 16 | 0.0 | 0.0 | 0.00 | 0.00 | 0.00 | 38 | 1012.7 | |
| 20260503222802 | 16 | 0.0 | 0.0 | 0.00 | 0.00 | 0.00 | 37 | 1012.7 | |
| 20260503222701 | 16 | 0.0 | 0.0 | 0.00 | 0.00 | 0.00 | 37 | 1012.7 | |
| 20260503222501 | 16 | 0.0 | 0.0 | 0.00 | 0.00 | 0.00 | 37 | 1012.7 | |
| 20260503222402 | 16 | 0.0 | 0.0 | 0.00 | 0.00 | 0.00 | 38 | 1012.7 | |
| 20260503222304 | 16 | 0.0 | 0.0 | 0.00 | 0.00 | 0.00 | 38 | 1012.6 | |
| 20260503222202 | 16 | 0.0 | 0.0 | 0.00 | 0.00 | 0.00 | 36 | 1012.7 | |
| 20260503222106 | 16 | 0.0 | 0.0 | 0.00 | 0.00 | 0.00 | 36 | 1012.7 | |
| 20260503222001 | 16 | 0.0 | 0.0 | 0.00 | 0.00 | 0.00 | 37 | 1012.6 | |
| 20260503221901 | 16 | 0.0 | 0.0 | 0.00 | 0.00 | 0.00 | 38 | 1012.7 | |
| 20260503221802 | 16 | 0.0 | 0.0 | 0.00 | 0.00 | 0.00 | 37 | 1012.7 | |
| 20260503221701 | 16 | 0.0 | 0.0 | 0.00 | 0.00 | 0.00 | 36 | 1012.7 | |
| 20260503221602 | 16 | 0.0 | 0.0 | 0.00 | 0.00 | 0.00 | 38 | 1012.7 | |
| 20260503221401 | 16 | 0.0 | 0.0 | 0.00 | 0.00 | 0.00 | 37 | 1012.7 | |
| 20260503221302 | 16 | 0.0 | 0.0 | 0.00 | 0.00 | 0.00 | 40 | 1012.7 | |
| 20260503221201 | 16 | 0.0 | 0.0 | 0.00 | 0.00 | 0.00 | 37 | 1012.7 | |
| 20260503221102 | 16 | 0.0 | 0.0 | 0.00 | 0.00 | 0.00 | 37 | 1012.7 | |
| 20260503221002 | 16 | 0.0 | 0.0 | 0.00 | 0.00 | 0.00 | 37 | 1012.8 | |
| 20260503220901 | 16 | 0.0 | 0.0 | 0.00 | 0.00 | 0.00 | 38 | 1012.7 | |
| 20260503220802 | 16 | 0.0 | 0.0 | 0.00 | 0.00 | 0.00 | 39 | 1012.7 | |
| 20260503220603 | 16 | 0.0 | 0.0 | 0.00 | 0.00 | 0.00 | 38 | 1012.7 | |
| 20260503220502 | 16 | 0.0 | 0.0 | 0.00 | 0.00 | 0.00 | 39 | 1012.7 | |
| 20260503220402 | 16 | 0.0 | 0.0 | 0.00 | 0.00 | 0.00 | 36 | 1012.7 | |
| 20260503220202 | 16 | 0.0 | 0.0 | 0.00 | 0.00 | 0.00 | 39 | 1012.7 | |
| 20260503220005 | 16 | 0.0 | 0.0 | 0.00 | 0.00 | 0.00 | 37 | 1012.7 | |
| 20260503215903 | 16 | 0.0 | 0.0 | 0.00 | 0.00 | 0.00 | 37 | 1012.7 | |
| 20260503215801 | 16 | 0.0 | 0.0 | 0.00 | 0.00 | 0.00 | 37 | 1012.7 | |
| 20260503215501 | 16 | 0.0 | 0.0 | 0.00 | 0.00 | 0.00 | 39 | 1012.7 | |
| 20260503215401 | 16 | 0.0 | 0.0 | 0.00 | 0.00 | 0.00 | 38 | 1012.6 | |
| 20260503215304 | 16 | 0.0 | 0.0 | 0.00 | 0.00 | 0.00 | 38 | 1012.7 | |
| 20260503215103 | 16 | 0.0 | 0.0 | 0.00 | 0.00 | 0.00 | 38 | 1012.7 | |
| 20260503215003 | 16 | 0.0 | 0.0 | 0.00 | 0.00 | 0.00 | 40 | 1012.6 | |
| 20260503214901 | 16 | 0.0 | 0.0 | 0.00 | 0.00 | 0.00 | 38 | 1012.7 | |
| 20260503214802 | 16 | 0.0 | 0.0 | 0.00 | 0.00 | 0.00 | 40 | 1012.7 | |
| 20260503214702 | 16 | 0.0 | 0.0 | 0.00 | 0.00 | 0.00 | 39 | 1012.7 | |
| 20260503214603 | 16 | 0.0 | 0.0 | 0.00 | 0.00 | 0.00 | 37 | 1012.7 | |
| 20260503214503 | 16 | 0.0 | 0.0 | 0.00 | 0.00 | 0.00 | 37 | 1012.7 | |
| 20260503214404 | 16 | 0.0 | 0.0 | 0.00 | 0.00 | 0.00 | 38 | 1012.7 | |
| 20260503214302 | 16 | 0.0 | 0.0 | 0.00 | 0.00 | 0.00 | 37 | 1012.6 | |
| 20260503214102 | 16 | 0.0 | 0.0 | 0.00 | 0.00 | 0.00 | 37 | 1012.6 | |
| 20260503214002 | 16 | 0.0 | 0.0 | 0.00 | 0.00 | 0.00 | 36 | 1012.6 | |
| 20260503213901 | 16 | 0.0 | 0.0 | 0.00 | 0.00 | 0.00 | 37 | 1012.6 | |
| 20260503213801 | 16 | 0.0 | 0.0 | 0.00 | 0.00 | 0.00 | 38 | 1012.6 | |
| 20260503213701 | 16 | 0.0 | 0.0 | 0.00 | 0.00 | 0.00 | 37 | 1012.6 | |
| 20260503213502 | 16 | 0.0 | 0.0 | 0.00 | 0.00 | 0.00 | 38 | 1012.6 | |
| 20260503213402 | 16 | 0.0 | 0.0 | 0.00 | 0.00 | 0.00 | 37 | 1012.6 | |
| 20260503213302 | 16 | 0.0 | 0.0 | 0.00 | 0.00 | 0.00 | 37 | 1012.6 | |
| 20260503213203 | 16 | 0.0 | 0.0 | 0.00 | 0.00 | 0.00 | 37 | 1012.6 | |
| 20260503213103 | 16 | 0.0 | 0.0 | 0.00 | 0.00 | 0.00 | 39 | 1012.6 | |
| 20260503213001 | 16 | 0.0 | 0.0 | 0.00 | 0.00 | 0.00 | 44 | 1012.6 | |
| 20260503212902 | 16 | 0.0 | 0.0 | 0.00 | 0.00 | 0.00 | 40 | 1012.6 | |
| 20260503212801 | 16 | 0.0 | 0.0 | 0.00 | 0.00 | 0.00 | 38 | 1012.6 | |
| 20260503212701 | 16 | 0.0 | 0.0 | 0.00 | 0.00 | 0.00 | 38 | 1012.5 | |
| 20260503212602 | 16 | 0.0 | 0.0 | 0.00 | 0.00 | 0.00 | 38 | 1012.6 | |
| 20260503212402 | 16 | 0.0 | 0.0 | 0.00 | 0.00 | 0.00 | 38 | 1012.6 | |
| 20260503212301 | 16 | 0.0 | 0.0 | 0.00 | 0.00 | 0.00 | 39 | 1012.6 | |
| 20260503212203 | 16 | 0.0 | 0.0 | 0.00 | 0.00 | 0.00 | 39 | 1012.6 | |
| 20260503212102 | 16 | 0.0 | 0.0 | 0.00 | 0.00 | 0.00 | 38 | 1012.6 | |
| 20260503212002 | 16 | 0.0 | 0.0 | 0.00 | 0.00 | 0.00 | 37 | 1012.6 | |
| 20260503211901 | 16 | 0.0 | 0.0 | 0.00 | 0.00 | 0.00 | 38 | 1012.6 | |
| 20260503211803 | 16 | 0.0 | 0.0 | 0.00 | 0.00 | 0.00 | 38 | 1012.6 | |
| 20260503211703 | 16 | 0.0 | 0.0 | 0.00 | 0.00 | 0.00 | 37 | 1012.6 | |
| 20260503211601 | 16 | 0.0 | 0.0 | 0.00 | 0.00 | 0.00 | 39 | 1012.5 | |
| 20260503211502 | 16 | 0.0 | 0.0 | 0.00 | 0.00 | 0.00 | 37 | 1012.5 | |
| 20260503211402 | 16 | 0.0 | 0.0 | 0.00 | 0.00 | 0.00 | 38 | 1012.5 | |
| 20260503211103 | 16 | 0.0 | 0.0 | 0.00 | 0.00 | 0.00 | 37 | 1012.6 | |
| 20260503211002 | 16 | 0.0 | 0.0 | 0.00 | 0.00 | 0.00 | 37 | 1012.6 | |
| 20260503210902 | 16 | 0.0 | 0.0 | 0.00 | 0.00 | 0.00 | 37 | 1012.6 | |
| 20260503210802 | 16 | 0.0 | 0.0 | 0.00 | 0.00 | 0.00 | 38 | 1012.6 | |
| 20260503210701 | 16 | 0.0 | 0.0 | 0.00 | 0.00 | 0.00 | 37 | 1012.6 | |
| 20260503210501 | 16 | 0.0 | 0.0 | 0.00 | 0.00 | 0.00 | 36 | 1012.6 | |
| 20260503210402 | 16 | 0.0 | 0.0 | 0.00 | 0.00 | 0.00 | 38 | 1012.7 | |
| 20260503210301 | 16 | 0.0 | 0.0 | 0.00 | 0.00 | 0.00 | 38 | 1012.7 | |
| 20260503210202 | 16 | 0.0 | 0.0 | 0.00 | 0.00 | 0.00 | 40 | 1012.6 | |
| 20260503210001 | 16 | 0.0 | 0.0 | 0.00 | 0.00 | 0.00 | 38 | 1012.6 | |
| 20260503205901 | 16 | 0.0 | 0.0 | 0.00 | 0.00 | 0.00 | 39 | 1012.6 | |
| 20260503205800 | 16 | 0.0 | 0.0 | 0.00 | 0.00 | 0.00 | 38 | 1012.6 | |
| 20260503205701 | 16 | 0.0 | 0.0 | 0.00 | 0.00 | 0.00 | 38 | 1012.5 | |
| 20260503205600 | 16 | 0.0 | 0.0 | 0.00 | 0.00 | 0.00 | 36 | 1012.7 | |
| 20260503205500 | 16 | 0.0 | 0.0 | 0.00 | 0.00 | 0.00 | 37 | 1012.6 | |
| 20260503205401 | 16 | 0.0 | 0.0 | 0.00 | 0.00 | 0.00 | 37 | 1012.7 | |
| 20260503205303 | 16 | 0.0 | 0.0 | 0.00 | 0.00 | 0.00 | 39 | 1012.6 | |
| 20260503205201 | 16 | 0.0 | 0.0 | 0.00 | 0.00 | 0.00 | 37 | 1012.6 | |
| 20260503205101 | 16 | 0.0 | 0.0 | 0.00 | 0.00 | 0.00 | 39 | 1012.6 | |
| 20260503205001 | 16 | 0.0 | 0.0 | 0.00 | 0.00 | 0.00 | 37 | 1012.6 | |
| 20260503204901 | 16 | 0.0 | 0.0 | 0.00 | 0.00 | 0.00 | 38 | 1012.6 | |
| 20260503204802 | 16 | 0.0 | 0.0 | 0.00 | 0.00 | 0.00 | 39 | 1012.6 | |
| 20260503204700 | 16 | 0.0 | 0.0 | 0.00 | 0.00 | 0.00 | 37 | 1012.6 | |
| 20260503204600 | 16 | 0.0 | 0.0 | 0.00 | 0.00 | 0.00 | 39 | 1012.6 | |
| 20260503204500 | 16 | 0.0 | 0.0 | 0.00 | 0.00 | 0.00 | 38 | 1012.6 | |
| 20260503204402 | 16 | 0.0 | 0.0 | 0.00 | 0.00 | 0.00 | 38 | 1012.6 | |
| 20260503204301 | 16 | 0.0 | 0.0 | 0.00 | 0.00 | 0.00 | 39 | 1012.7 | |
| 20260503204201 | 16 | 0.0 | 0.0 | 0.00 | 0.00 | 0.00 | 39 | 1012.7 | |
| 20260503204101 | 16 | 0.0 | 0.0 | 0.00 | 0.00 | 0.00 | 39 | 1012.6 | |
| 20260503204001 | 16 | 0.0 | 0.0 | 0.00 | 0.00 | 0.00 | 39 | 1012.7 | |
| 20260503203901 | 16 | 0.0 | 0.0 | 0.00 | 0.00 | 0.00 | 39 | 1012.7 | |
| 20260503203801 | 16 | 0.0 | 0.0 | 0.00 | 0.00 | 0.00 | 38 | 1012.7 | |
| 20260503203700 | 16 | 0.0 | 0.0 | 0.00 | 0.00 | 0.00 | 37 | 1012.6 | |
| 20260503203600 | 16 | 0.0 | 0.0 | 0.00 | 0.00 | 0.00 | 38 | 1012.7 | |
| 20260503203501 | 16 | 0.0 | 0.0 | 0.00 | 0.00 | 0.00 | 40 | 1012.7 | |
| 20260503203400 | 16 | 0.0 | 0.0 | 0.00 | 0.00 | 0.00 | 40 | 1012.7 | |
| 20260503203303 | 16 | 0.0 | 0.0 | 0.00 | 0.00 | 0.00 | 39 | 1012.7 | |
| 20260503203201 | 16 | 0.0 | 0.0 | 0.00 | 0.00 | 0.00 | 39 | 1012.7 | |
| 20260503203102 | 16 | 0.0 | 0.0 | 0.00 | 0.00 | 0.00 | 39 | 1012.7 | |
| 20260503203000 | 16 | 0.0 | 0.0 | 0.00 | 0.00 | 0.00 | 39 | 1012.7 | |
| 20260503202901 | 16 | 0.0 | 0.0 | 0.00 | 0.00 | 0.00 | 40 | 1012.7 |